Wind_Speed
25 23 23 24 23 21 23 22 22 22 22 24 25 25 25 23 24 23 23 24 24 24 24 24 23 23 22 22 22 22 22 21 22 21 21 21 21 21 21 20 20 21 21 20
26 25 25 24 23 23 24 23 23 22 22 24 24 26 25 24 24 23 24 24 23 23 23 23 22 22 22 21 21 21 21 21 21 21 21 21 20 20 21 21 20 20 20 20
27 26 26 25 24 23 24 24 24 24 23 24 26 25 25 25 25 25 26 25 24 23 23 23 23 22 21 21 21 21 21 20 20 20 20 20 20 20 21 21 20 20 20 21
25 25 27 24 24 25 24 23 25 26 25 26 27 26 26 24 24 26 26 24 24 24 23 23 24 23 22 22 21 21 20 21 21 20 20 20 19 20 20 20 20 20 20 21
25 25 27 26 25 25 26 26 27 28 27 27 26 25 25 24 23 23 23 22 23 23 24 24 24 24 23 22 21 20 20 20 20 20 19 19 19 20 20 20 20 20 20 20
26 26 27 26 26 26 25 27 26 27 27 26 25 26 25 24 23 23 22 22 23 24 24 23 23 23 22 22 22 21 21 20 20 20 20 20 20 20 20 21 21 20 20 20
26 26 26 24 24 26 27 27 26 27 27 26 26 27 24 22 23 23 22 22 22 22 23 23 22 21 21 21 21 21 20 20 20 20 20 21 21 21 21 21 21 20 20 21
24 24 23 25 25 27 28 27 27 26 27 27 26 25 24 23 23 22 22 21 21 21 21 21 21 20 20 21 21 21 20 20 20 20 20 20 20 20 20 21 20 20 20 21
26 25 24 25 26 28 27 27 26 25 26 26 25 24 24 24 23 22 21 20 20 20 20 20 20 20 20 21 21 21 20 19 19 19 19 19 20 20 20 21 22 21 21 21
26 26 25 24 26 26 27 26 26 26 26 24 23 23 24 24 24 23 22 21 21 20 20 19 19 19 19 20 20 20 20 20 19 19 19 18 19 19 20 21 21 21 21 21
25 25 25 25 24 25 25 25 25 24 23 22 23 23 23 23 24 23 22 22 21 20 20 19 19 19 18 18 18 19 19 20 20 20 19 19 18 19 19 19 20 21 21 21
25 25 25 26 26 25 26 25 25 24 24 24 21 22 23 22 21 21 21 21 20 19 19 19 19 19 18 18 18 19 20 20 20 19 19 19 19 19 19 20 20 20 20 21
24 25 25 25 26 26 25 25 25 24 24 23 22 22 22 22 21 21 20 20 19 19 19 19 19 19 18 18 18 19 19 19 19 19 19 19 20 20 20 20 20 21 21 21
22 23 23 23 24 24 23 22 22 23 23 22 22 21 21 21 21 21 20 19 20 20 20 20 19 19 19 18 18 18 18 18 18 19 20 20 21 21 21 21 21 22 22 22
22 22 22 22 23 23 22 22 22 22 22 22 22 22 21 21 21 21 21 20 20 20 20 20 20 19 19 19 19 18 18 18 19 20 20 21 21 22 22 22 22 22 22 22
21 22 22 22 22 22 22 22 22 23 21 21 22 22 21 21 21 21 21 21 21 20 20 20 20 19 19 20 20 20 20 19 19 20 21 21 21 22 22 22 22 22 21 21
20 20 20 21 21 21 22 22 22 23 22 22 22 22 22 22 21 21 21 21 21 20 20 20 20 20 20 20 20 20 20 20 20 20 20 20 21 21 21 22 22 22 21 19
19 18 17 19 20 21 22 22 23 23 23 23 24 24 23 22 22 22 21 21 21 22 22 21 21 21 21 22 22 21 21 22 22 21 21 20 20 20 21 21 21 21 20 20
18 18 18 18 19 20 22 23 23 24 24 25 25 25 25 24 24 23 23 23 23 23 23 23 23 23 23 23 23 23 23 23 23 23 22 22 22 22 22 22 21 21 21 21
18 17 17 17 18 20 21 22 22 23 24 24 25 26 26 25 25 25 25 25 24 24 24 25 25 25 25 25 25 25 24 24 24 24 24 23 23 23 23 22 22 22 22 22
17 16 17 17 18 19 20 21 22 23 23 23 24 25 25 25 26 26 26 26 26 26 26 26 26 26 26 26 26 25 25 24 25 25 25 24 24 24 23 23 23 23 23 22
16 16 16 17 18 19 20 21 22 23 24 25 25 26 26 26 27 27 27 27 27 27 26 27 27 26 26 26 26 25 25 24 25 25 24 24 24 24 23 24 24 24 24 23
14 15 15 15 17 18 19 20 21 22 24 25 25 26 27 27 28 28 28 28 28 27 27 27 27 27 26 26 25 25 25 24 25 25 25 25 24 24 25 25 25 25 25 25
13 13 13 14 16 17 19 20 21 21 22 23 25 26 27 27 28 27 27 27 27 27 27 28 28 28 27 27 26 26 26 26 26 25 25 24 24 24 25 25 25 25 25 25
13 13 13 14 15 16 16 17 18 19 20 21 23 23 24 25 25 25 25 26 26 27 27 27 27 27 27 27 26 26 26 26 25 25 25 24 24 24 24 24 24 24 24 24
12 13 13 14 15 16 16 16 16 17 19 19 19 20 21 22 23 24 24 25 25 25 25 25 25 25 26 26 26 26 26 25 25 25 25 24 24 24 24 23 23 24 24 25
13 14 14 15 15 16 17 17 17 17 17 17 18 18 18 19 20 21 22 23 23 24 24 24 25 25 25 25 25 25 25 24 24 23 24 24 24 23 23 24 24 24 23 23
Wind_Direction
245 244 242 245 247 250 251 252 255 256 254 261 265 265 265 263 264 264 266 269 269 270 271 271 270 272 273 274 274 275 275 274 275 277 277 275 275 275 276 276 274 272 272 273
248 247 248 248 249 252 252 254 253 253 255 263 267 267 268 270 269 265 266 269 270 271 272 271 272 274 273 273 272 273 273 273 274 275 276 274 275 275 275 274 273 273 274 273
252 249 251 245 247 250 252 250 256 256 255 259 262 262 265 269 269 266 266 269 272 272 272 270 271 273 274 273 272 272 274 273 273 273 273 276 279 277 274 273 272 273 274 273
252 250 254 251 250 250 253 252 253 256 259 259 260 261 263 263 265 264 266 270 271 270 269 270 271 271 272 273 273 274 272 272 272 272 272 274 276 275 272 271 271 273 275 274
251 253 254 253 251 251 252 250 249 252 256 258 260 262 263 266 266 266 266 269 270 270 269 270 271 270 270 271 275 277 275 272 271 271 272 274 274 276 275 274 276 275 276 276
249 252 253 253 251 250 251 252 252 253 253 254 258 261 261 263 264 267 269 270 271 270 270 270 270 270 268 270 273 276 277 274 272 274 274 274 275 276 276 275 275 275 275 276
251 254 254 254 250 248 249 251 252 252 254 254 257 260 261 262 263 265 268 271 272 272 270 269 269 267 267 268 270 272 274 274 274 274 273 273 274 275 275 274 274 276 276 276
252 255 255 253 252 249 250 251 252 252 253 255 257 259 260 260 261 265 267 270 272 271 271 268 266 266 267 268 269 269 269 271 272 272 272 273 274 274 273 273 274 276 278 277
250 251 256 255 253 254 252 252 252 251 251 253 255 256 258 259 261 264 268 269 270 269 269 267 265 265 267 267 267 267 268 271 273 274 275 274 273 273 273 274 274 275 276 278
251 250 254 252 252 252 253 254 252 254 253 251 253 258 260 260 260 263 266 268 268 267 266 266 264 263 266 266 267 268 269 270 271 274 278 278 274 275 276 276 275 276 277 279
252 252 253 255 255 257 257 255 253 255 258 252 252 256 260 262 262 263 265 265 266 267 268 266 263 264 266 266 267 268 270 269 269 273 277 279 279 280 279 281 279 278 279 281
252 253 255 256 256 258 257 255 254 254 256 255 257 258 259 258 260 261 263 263 264 265 265 265 265 266 266 267 267 268 271 272 271 272 274 277 279 281 282 284 283 283 282 283
252 252 254 257 256 256 256 252 253 253 253 255 258 258 257 257 257 260 262 263 262 264 264 265 266 268 267 266 266 268 272 272 270 272 275 276 280 283 283 282 283 285 285 284
255 256 254 255 255 254 255 253 254 251 251 254 256 255 254 255 258 260 262 262 263 264 264 264 265 266 266 265 266 268 271 272 272 274 276 277 279 281 282 282 282 283 285 284
257 258 256 254 253 252 253 253 253 253 254 253 253 253 253 254 257 259 260 261 264 263 263 263 264 264 264 266 268 270 272 273 274 276 277 278 279 281 281 282 283 283 285 285
258 257 256 254 253 252 252 251 250 250 251 253 254 253 253 254 256 258 260 260 261 259 260 263 263 263 264 266 267 269 272 274 277 279 280 282 283 283 282 282 282 281 282 282
263 262 258 253 251 250 250 251 251 250 250 254 256 256 254 255 257 259 261 261 259 259 260 261 262 264 265 267 269 271 272 274 277 280 283 285 286 286 285 283 282 282 283 281
267 268 262 255 251 249 249 249 252 253 254 254 255 258 258 258 259 259 259 260 260 260 260 260 263 265 267 269 271 272 273 273 275 278 280 283 285 286 286 286 284 284 284 284
270 268 261 256 254 251 250 250 252 254 256 256 257 258 257 258 258 258 258 259 260 259 259 261 262 265 267 269 271 271 272 273 275 277 277 280 282 284 286 286 285 285 284 283
271 266 261 259 258 256 254 255 257 257 259 259 258 258 258 258 259 258 258 258 259 260 261 262 265 267 269 270 270 270 271 272 274 276 277 277 281 284 284 285 285 285 284 283
272 268 263 260 260 260 259 259 259 259 260 260 259 259 259 259 260 260 259 258 259 260 262 263 265 266 268 270 270 269 270 271 273 276 276 277 281 282 282 282 284 285 285 283
272 269 267 266 264 263 263 261 261 261 260 261 262 260 259 258 258 259 259 259 259 259 260 261 263 264 267 269 271 271 270 271 274 277 277 279 282 282 282 281 282 283 283 284
272 271 269 267 266 266 266 266 266 264 263 264 265 263 261 260 259 258 257 257 257 258 261 263 263 264 267 270 272 272 271 271 273 275 277 279 281 282 282 280 280 281 282 283
277 276 274 273 273 272 270 269 269 268 268 267 266 264 262 260 259 259 258 258 258 259 261 262 263 264 266 270 272 272 271 272 274 275 277 277 279 281 283 282 281 281 281 282
280 280 280 281 281 281 280 277 276 275 275 274 272 268 264 261 260 260 260 259 259 261 263 263 262 263 265 269 271 271 272 273 274 275 276 277 279 280 280 281 282 281 281 282
283 285 285 286 286 285 287 287 285 283 281 279 276 272 267 263 261 261 260 260 260 262 263 263 264 264 266 269 269 270 271 271 273 274 275 275 277 278 278 279 280 280 280 280
287 289 290 292 291 291 290 290 291 290 286 284 281 277 271 266 265 263 261 260 261 263 264 265 265 266 268 269 270 269 268 269 270 272 274 275 277 278 279 278 279 280 280 279
Height
5764 5767 5769 5770 5771 5773 5774 5775 5777 5778 5778 5778 5778 5778 5778 5778 5778 5778 5779 5780 5780 5780 5780 5781 5781 5781 5781 5781 5781 5781 5781 5781 5781 5781 5781 5781 5780 5780 5780 5780 5780 5780 5780 5780
5758 5761 5762 5763 5765 5766 5768 5769 5770 5770 5771 5771 5772 5772 5772 5772 5772 5772 5773 5774 5774 5774 5775 5775 5775 5776 5776 5776 5776 5776 5776 5776 5776 5776 5776 5775 5775 5775 5775 5775 5774 5774 5775 5775
5751 5753 5754 5756 5758 5760 5761 5762 5764 5764 5765 5765 5766 5766 5766 5767 5766 5767 5767 5768 5768 5769 5769 5769 5770 5770 5770 5770 5770 5770 5770 5770 5770 5771 5771 5770 5770 5769 5769 5769 5769 5769 5769 5769
5744 5746 5746 5751 5752 5754 5755 5755 5757 5758 5759 5760 5760 5760 5760 5760 5761 5761 5761 5762 5762 5763 5763 5763 5764 5764 5764 5765 5765 5764 5765 5765 5765 5765 5765 5765 5765 5764 5764 5764 5764 5764 5763 5763
5738 5738 5740 5744 5745 5746 5747 5748 5749 5751 5752 5753 5753 5754 5754 5755 5755 5755 5756 5756 5756 5756 5757 5757 5757 5758 5758 5759 5759 5759 5759 5759 5759 5759 5760 5759 5759 5759 5758 5758 5758 5758 5757 5757
5731 5732 5733 5738 5739 5739 5740 5740 5742 5744 5745 5746 5747 5748 5749 5749 5749 5750 5750 5750 5750 5750 5750 5751 5751 5752 5752 5753 5754 5754 5754 5753 5754 5754 5754 5754 5754 5753 5753 5752 5752 5752 5752 5752
5724 5725 5726 5729 5730 5732 5734 5734 5735 5736 5737 5738 5740 5741 5742 5743 5744 5744 5744 5744 5744 5744 5744 5745 5745 5746 5747 5747 5748 5748 5748 5748 5748 5748 5748 5748 5748 5747 5747 5747 5746 5746 5746 5746
5717 5718 5722 5722 5723 5724 5725 5726 5727 5729 5730 5732 5732 5733 5735 5736 5737 5737 5738 5738 5738 5738 5738 5739 5739 5740 5741 5742 5742 5742 5742 5742 5742 5742 5742 5742 5741 5741 5741 5741 5741 5740 5740 5740
5712 5714 5714 5714 5715 5716 5717 5718 5720 5721 5723 5725 5726 5728 5729 5730 5731 5731 5732 5732 5732 5732 5733 5733 5734 5734 5735 5736 5736 5736 5736 5736 5736 5736 5736 5736 5735 5735 5735 5734 5734 5734 5734 5734
5704 5705 5706 5706 5707 5709 5710 5712 5713 5714 5716 5717 5719 5721 5722 5723 5724 5725 5726 5726 5726 5727 5727 5728 5728 5729 5730 5730 5730 5730 5730 5731 5730 5730 5730 5730 5729 5729 5729 5729 5728 5728 5728 5728
5698 5699 5699 5700 5701 5703 5704 5706 5707 5708 5709 5710 5712 5714 5716 5717 5718 5719 5719 5720 5720 5721 5721 5722 5722 5723 5724 5724 5724 5724 5724 5725 5725 5725 5725 5724 5724 5723 5723 5723 5722 5722 5721 5721
5691 5692 5693 5694 5695 5696 5698 5699 5701 5703 5704 5705 5705 5707 5709 5710 5711 5712 5713 5714 5715 5715 5716 5716 5717 5718 5718 5718 5719 5719 5719 5719 5719 5719 5719 5719 5718 5718 5718 5717 5716 5716 5715 5714
5684 5685 5686 5687 5688 5690 5691 5692 5694 5696 5697 5698 5700 5701 5703 5704 5705 5706 5707 5708 5709 5710 5710 5711 5712 5712 5713 5713 5713 5713 5713 5713 5713 5713 5713 5713 5713 5712 5712 5712 5711 5710 5709 5708
5676 5677 5679 5681 5682 5684 5685 5686 5687 5689 5690 5692 5694 5695 5697 5698 5699 5701 5701 5702 5703 5704 5704 5705 5706 5707 5707 5707 5707 5707 5707 5707 5707 5707 5707 5707 5706 5706 5705 5705 5705 5704 5703 5702
5671 5672 5673 5675 5676 5677 5679 5680 5681 5682 5683 5686 5688 5689 5690 5692 5693 5695 5695 5696 5697 5698 5698 5699 5700 5701 5701 5701 5702 5702 5702 5702 5702 5701 5701 5700 5700 5699 5698 5698 5697 5697 5696 5695
5665 5666 5667 5669 5670 5671 5673 5674 5675 5676 5677 5679 5681 5683 5684 5685 5687 5688 5689 5690 5691 5692 5693 5693 5694 5695 5695 5696 5696 5696 5696 5696 5695 5695 5694 5694 5693 5692 5691 5691 5690 5690 5689 5688
5660 5660 5661 5662 5664 5665 5667 5668 5669 5670 5671 5673 5675 5676 5677 5679 5680 5681 5682 5683 5684 5685 5686 5687 5688 5688 5689 5689 5689 5689 5689 5689 5689 5688 5688 5687 5686 5685 5684 5684 5683 5683 5682 5681
5654 5655 5655 5656 5657 5659 5661 5662 5663 5663 5665 5667 5668 5669 5671 5672 5673 5674 5676 5677 5678 5679 5680 5680 5681 5682 5682 5683 5683 5682 5683 5683 5683 5682 5681 5681 5680 5679 5678 5677 5676 5676 5675 5674
5649 5649 5650 5650 5651 5653 5654 5655 5656 5657 5659 5660 5661 5662 5664 5665 5666 5667 5668 5670 5671 5672 5673 5674 5674 5675 5675 5676 5675 5675 5676 5676 5675 5675 5675 5674 5674 5673 5672 5671 5670 5669 5668 5667
5644 5644 5644 5645 5646 5647 5648 5649 5650 5651 5652 5652 5654 5655 5656 5657 5659 5660 5661 5662 5663 5664 5665 5666 5667 5667 5668 5668 5668 5668 5668 5668 5668 5668 5667 5667 5666 5666 5665 5664 5663 5662 5662 5661
5638 5639 5639 5639 5640 5641 5642 5642 5643 5643 5644 5645 5646 5647 5648 5650 5650 5651 5652 5654 5655 5656 5657 5658 5659 5660 5660 5660 5660 5660 5660 5660 5660 5660 5660 5659 5659 5658 5657 5657 5656 5655 5654 5653
5633 5633 5634 5634 5635 5635 5635 5636 5636 5636 5637 5637 5638 5639 5640 5641 5642 5643 5643 5645 5646 5647 5648 5649 5650 5651 5651 5652 5652 5652 5652 5652 5652 5652 5652 5652 5651 5651 5650 5649 5649 5648 5647 5646
5629 5629 5628 5629 5629 5629 5629 5629 5629 5629 5629 5629 5630 5630 5631 5632 5633 5634 5635 5636 5637 5638 5639 5640 5642 5643 5643 5643 5643 5644 5644 5644 5644 5644 5644 5644 5643 5642 5642 5641 5640 5640 5639 5638
5625 5624 5624 5624 5623 5623 5623 5622 5622 5621 5621 5621 5621 5621 5621 5622 5623 5624 5625 5626 5627 5629 5630 5631 5633 5634 5634 5634 5635 5635 5635 5636 5636 5636 5636 5635 5635 5634 5633 5633 5632 5631 5631 5630
5620 5620 5620 5619 5618 5617 5616 5615 5615 5614 5614 5613 5612 5612 5612 5613 5614 5615 5616 5617 5618 5620 5621 5622 5623 5624 5625 5626 5626 5627 5627 5627 5627 5627 5627 5627 5626 5626 5626 5625 5624 5623 5622 5622
5617 5616 5615 5614 5612 5611 5610 5609 5609 5608 5607 5606 5605 5604 5604 5604 5605 5606 5607 5608 5610 5611 5612 5613 5614 5615 5616 5616 5617 5618 5618 5618 5618 5619 5619 5618 5618 5618 5618 5617 5617 5616 5615 5615
5613 5612 5611 5609 5608 5607 5605 5604 5603 5601 5600 5599 5598 5597 5597 5597 5597 5598 5599 5600 5601 5602 5603 5604 5605 5606 5607 5608 5608 5609 5610 5610 5610 5610 5611 5611 5610 5610 5610 5609 5609 5608 5607 5607